sat.trackr.live / text

‹ back to catalog

STARLINK-11318 [DTC]

NORAD 61252 · 2024-175K

PAYLOAD ACTIVE UNKNOWN

§ Identity

Operator
Country
US
Launch date
2024-09-25
Launch site
AFWTR
Launch vehicle
Mass (kg)
RCS (m²)

Purposes: comms

External: N2YO · Heavens-Above · Gunter

§ Orbital elements

Epoch: 2026-09-21T11:26:13.488864Z

Period
91.74 min
Inclination
53.1607°
Eccentricity
0.0001627
Mean motion
15.69706758 rev/d
Perigee alt
358.6 km
Apogee alt
360.8 km
Semi-major
6,737.9 km
B*
9.0484e-6
RAAN
171.3532°
Arg perigee
64.2338°
Mean anomaly
295.8848°
Rev number
11,528

§ Raw data

STARLINK-11318 [DTC]1 61252U 24175K   26264.47654501  .00000507  00000+0  90484-5 0  99982 61252  53.1607 171.3532 0001627  64.2338 295.8848 15.69706758115289

JSON: /api/v1/satellites/61252 · /tle

For live sub-satellite position, see the globe view (requires WebGL).

§ Visibility from observer

Set your observer location to see the next 7 days of passes ≥ 10°. The values pass through the URL so the page stays shareable.

No JS? Fill the form by hand. The geolocation button needs JavaScript.